Regional Weather Roundup
Issued by NWS

Home | Current Version | Previous Version | Graphics & Text | Print | Product List | Glossary On
Versions: 1 2 3 4 5 6 7 8 9 10 11 12 13 14 15 16 17 18 19 20 21 22 23 24 25 26 27 28 29 30 31 32 33 34 35 36 37 38 39 40 41 42 43 44 45 46 47 48 49 50
000
ASUS43 KDMX 211301
RWRIA

WEATHER ROUNDUP FOR IOWA
NATIONAL WEATHER SERVICE DES MOINES IA
800 AM CDT SAT APR 21 2018

NOTE: "FAIR" INDICATES FEW OR NO CLOUDS BELOW 12,000 FEET WITH NO
SIGNIFICANT WEATHER AND/OR OBSTRUCTIONS TO VISIBILITY.

* - THESE STATIONS ARE NOT NWS STATIONS...THUS NOT UNDER NWS
QUALITY CONTROL.  THEY ALSO DO NOT REPORT WEATHER SUCH
AS PRECIPITATION OR FOG.

IAZ001>003-012>014-020>022-031>034-043>046-211400-
   NORTHWEST IOWA

CITY           SKY/WX    TMP DP  RH WIND       PRES   REMARKS
CARROLL *      CLOUDY    41  37  87 NE7       30.35S
CHEROKEE *     CLOUDY    38  31  77 E3        30.37R
DENISON *      PTSUNNY   43  34  70 E5        30.34S
LE MARS *      CLOUDY    41  32  70 VRB5      30.35S
ORANGE CITY *  DRIZZLE   39  34  81 E7        30.36R WCI  34
SHELDON *      CLOUDY    39  32  75 E9        30.35R WCI  33
SIOUX CITY     CLOUDY    43  34  70 E5        30.33R
SPENCER        CLOUDY    38  30  73 E6        30.37R WCI  33
STORM LAKE *   CLOUDY    37  30  75 NE9       30.36R WCI  31
$$

IAZ055>058-069>071-079>083-090>094-211400-
   SOUTHWEST IOWA

CITY           SKY/WX    TMP DP  RH WIND       PRES   REMARKS
ATLANTIC *     CLOUDY    45  32  61 NE8       30.33R
AUDUBON *      CLOUDY    45  34  65 CALM      30.35R
CLARINDA *     CLOUDY    48  27  43 CALM      30.33R
COUNCIL BLFS * CLOUDY    46  30  53 E10       30.29R
CRESTON *      CLOUDY    45  28  53 E13       30.33S
HARLAN  *      CLOUDY    45  32  61 E8        30.36R
RED OAK *      CLOUDY    48  28  46 NE8       30.30F
SHENANDOAH *   CLOUDY    48  28  46 NE6       30.30F
$$

IAZ047>049-059>061-072>074-084-211400-
   CENTRAL IOWA

CITY           SKY/WX    TMP DP  RH WIND       PRES   REMARKS
AMES           CLOUDY    44  34  67 E6        30.37R
ANKENY *       CLOUDY    45  32  61 E6        30.38S
BOONE *        PTSUNNY   43  36  75 E10       30.35F
CHARITON *     CLOUDY    46  28  49 E8        30.35S
DES MOINES     CLOUDY    47  29  49 E9        30.36S
GRINNELL*      CLOUDY    44  29  56 E7        30.40R
KNOXVILLE *    CLOUDY    46  25  42 E8        30.35S
MARSHALLTOWN   CLOUDY    43  36  76 E8        30.38R
NEWTON *       CLOUDY    45  30  57 E7        30.38R
PELLA *        CLOUDY    46  26  44 E5        30.38S
$$

IAZ004>006-015-016-023>025-035-036-211400-
   NORTH CENTRAL IOWA

CITY           SKY/WX    TMP DP  RH WIND       PRES   REMARKS
ALGONA *       CLOUDY    37  30  75 E6        30.38R WCI  33
CLARION *      CLOUDY    39  32  75 E8        30.39R WCI  34
ESTHERVILLE    CLOUDY    34  29  82 NE8       30.37S WCI  27
FORT DODGE *   CLOUDY    41  35  79 E9        30.37S
MASON CITY     CLOUDY    38  32  79 CALM      30.41R
FOREST CITY *  CLOUDY    43  30  61 CALM      30.39R
IOWA FALLS *   CLOUDY    43  33  68 NE3       30.40R
$$

IAZ007>011-017>019-026>030-037>042-050>054-066-211400-
   NORTHEAST IOWA

CITY           SKY/WX    TMP DP  RH WIND       PRES   REMARKS
CEDAR RAPIDS   FAIR      45  31  58 E8        30.39S
CHARLES CITY * FAIR      43  30  61 E6        30.40S
CLINTON *        N/A     44  27  51 E7        30.44R
DECORAH *      PTSUNNY   37  30  75 N5        30.41S WCI  34
DUBUQUE        CLOUDY    46  17  31 SW5       30.45R
MONTICELLO *   PTSUNNY   45  27  49 NE6       30.42F
OELWEIN *      FAIR      48  34  57 E9        30.41F
WATERLOO       CLOUDY    48  29  47 E8        30.39S
$$

IAZ064-065-067-068-078-211400-
   EAST CENTRAL IOWA

CITY           SKY/WX    TMP DP  RH WIND       PRES   REMARKS
DAVENPORT      FAIR      45  24  43 E5        30.45R
IOWA CITY      FAIR      48  26  42 E5        30.43R
MUSCATINE *    FAIR      46  32  57 NE6       30.43R
QUAD CITIES    FAIR      46  28  49 E6        30.42R
$$

IAZ062-063-075>077-085>089-095>099-211400-
   SOUTHEAST IOWA

CITY           SKY/WX    TMP DP  RH WIND       PRES   REMARKS
BURLINGTON     CLOUDY    47  26  44 E9        30.40R
FAIRFIELD *    CLOUDY    45  28  53 E7        30.39R
FORT MADISON * CLOUDY    48  28  46 E3        30.41R
KEOKUK *       CLOUDY    48  30  49 E12       30.38R
OSKALOOSA *    FAIR      45  28  51 E6        30.39S
CENTERVILLE *    N/A     45  27  49 CALM      30.37S
OTTUMWA        CLOUDY    45  28  51 E9        30.38R
WASHINGTON *   CLOUDY    45  32  61 NE6       30.42R
$$

ABBREVIATIONS USED IN REMARKS
   TC - TEMPERATURES IN CELSIUS
  WCI - WIND CHILL INDEX
   HX - HEAT INDEX
  VSB - VISIBILITY
$$





USA.gov is the U.S. government's official web portal to all federal, state and local government web resources and services.